STARLINK-1917, 46767

Orbit data source: Space-Track

STARLINK-1917, 46767 is a payload satellite owned by SpaceX/Seattle (US) in LEO that was launched on Sat, 24 Oct 2020 UTC via an FALCON 9 launch vehicle from the Air Force Eastern Test Range (AFETR). Payloads include a variety of satellites, spacecraft, and rockets equipped with specific instruments for various scientific and technological missions. These include communications satellites like Starlink; space stations such as the ISS; scientific satellites like the Hubble; Earth observation satellites from companies like Planet Labs, Umbra, and HawkEye 360; GPS; miniature CubeSats for education and research; and military/defense satellites.

Loading next visibility...
STARLINK-1917 details
Identifier
46767, 2020-074AE
Orbit
LEO
Last TLE update18 hours ago
Origin
Flag of USSpaceX/Seattle (US)
ManufacturerSpaceX/Seattle
MissionPartially operational Commercial Communications
Bus & MotorSTARLINK, Unknown motor
Mass260 kg wet, ~248 kg dry
Launch date (UTC)
2020-10-24 (4 years ago)
Launch vehicle
FALCON 9
Launch site
Air Force Eastern Test Range (AFETR)
Object type
Payload
Rocket body
Debris
Shape & HBRBox + 1 Pan, 8.86 m
Radar Cross Section13.562 m², Large (>1 m²)

Expand to show TLE details & history

TLE from 18 hours ago
0 STARLINK-1917
1 46767U 20074AE  24360.66667824  .00612844  00000-0  70536-2 0  9991
2 46767  53.0535 138.5037 0001230  64.1523 277.2555 15.59415176230436
Epoch: 2024-12-25T16:00Z
Definitive object data (Epoch: 2024-12-25T16:00:00.999Z)
Latitude-14.93646°
Longitude152.33424°
Altitude393.256 km
Speed7.675 km/s
True Right ascension08h 27m 58s
True Declination-14° 50' 47"
Sunlit
Object was in full shadow at TLE epoch
Visualization TLE readout
Latitude-16.54231°
Longitude147.26447°
Altitude391.175 km
Speed7.676 km/s
Apparent Right ascension05h 06m 33s
Apparent Declination-64° 01' 24"
Sunlit
Object is in full shadow
Visualization observer readout
Local Sidereal Time09:47:49
Azimuth207.741° SW
Elevation-27.625°
Doppler factor1
Orbital elements
Apogee altitude390.458 km
Perigee altitude388.793 km
Semi-major axis6,767.763 km
Eccentricity0.000123
Inclination53.0535°
RAAN138.5037°
Arg. of periapsis64.1523°
True anomaly277.24152°
Mean anomaly277.2555°
Eccentric anomaly277.24851°
Mean motion3.8983 °/min
BSTAR0.0070536
Orbital period92.35 mins
Loading maneuver chart data...

STARLINK-1917 Visibility forecast

Observer location: undefined°, undefined

Span
Click to sort rows by Start time (UTC) header in descending order
Start Az.
Max El. time (UTC)
Max El. Az.
Max El.
End time (UTC)
End Az.
5 mins2024-12-26 12:15:38.620Z235.169° WSW2024-12-26 12:17:38.620Z255.988° W41.135°2024-12-26 12:20:38.620Z46.697° ENE
4 mins2024-12-26 18:43:38.620Z319.156° NNW2024-12-26 18:45:38.620Z98.857° ESE39.824°2024-12-26 18:47:38.620Z122.742° SE
|